Damascus, Syria

1:01 PM EEST on June 18, 2018 (GMT +0300)
Damascus International

Weather History for OSDI - August, 2013

Change the Weather History Date:

Wednesday, August 21, 2013

  Actual Average Record
Temperature  
Mean Temperature 84 °F -  
Max Temperature 99 °F 94 °F 109 °F (2010)
Min Temperature 69 °F 57 °F 59 °F (2002)
Cooling Degree Days 19    
Growing Degree Days 34 (Base 50)    
Moisture  
Dew Point 57 °F    
Average Humidity 48    
Maximum Humidity 88    
Minimum Humidity 7    
Precipitation  
Precipitation 0.00 in 0.00 in - ()
Sea Level Pressure  
Sea Level Pressure 29.78 in    
Wind  
Wind Speed 7 mph ()    
Max Wind Speed 16 mph    
Max Gust Speed -    
Visibility 9.0 miles    
Events      
Averages and records for this station are not official NWS values.
T = Trace of Precipitation, MM = Missing Value Source: Averaged Metar Reports

Daily Weather History Graph

Daily Weather History Graph

Search for Another Location

Airport or City:

Astronomy

Aug. 21, 2013 Rise Set
Actual Time 6:00 AM EEST 7:13 PM EEST
Civil Twilight 5:34 AM EEST 7:38 PM EEST
Nautical Twilight 5:03 AM EEST 8:09 PM EEST
Astronomical Twilight 4:31 AM EEST 8:41 PM EEST
Moon 7:14 PM EEST (8/21) 6:12 AM EEST (8/21)
Length of Visible Light 14h 04m
Length of Day
13h 12m
Full, 100% of the Moon is Illuminated
Aug 21
Full
Aug 28
Last Quarter
Sep 5
New
Sep 12
First Quarter
Sep 19
Full

Hourly Weather History & Observations

Time (EEST) Temp. Heat Index Dew Point Humidity Pressure Visibility Wind Dir Wind Speed Gust Speed Precip Events Conditions
12:00 AM 77.0 °F - 57.2 °F 50% 29.80 in - West 4.6 mph - N/A   Clear
1:00 AM 75.2 °F - 59.0 °F 57% 29.80 in - West 4.6 mph - N/A   Clear
2:00 AM 73.4 °F - 62.6 °F 69% 29.80 in - WSW 6.9 mph - N/A   Clear
3:00 AM 72 °F - 65 °F 73% 29.65 in 9 mi West 11.2 mph - -  
3:00 AM 71.6 °F - 64.4 °F 78% 29.80 in - West 11.5 mph - N/A   Clear
4:00 AM 69.8 °F - 62.6 °F 78% 29.80 in - SSW 13.8 mph - N/A   Clear
5:00 AM 69.8 °F - 64.4 °F 83% 29.80 in - SW 13.8 mph - N/A   Clear
6:00 AM 69.8 °F - 66.2 °F 88% 29.80 in - WSW 9.2 mph - N/A   Clear
7:00 AM 69.8 °F - 66.2 °F 88% 29.80 in - West 6.9 mph - N/A   Clear
8:00 AM 73.4 °F - 66.2 °F 78% 29.80 in - West 6.9 mph - N/A   Clear
9:00 AM 77 °F - 65 °F 57% 29.67 in 9 mi WNW 6.7 mph - -  
9:00 AM 77.0 °F - 64.4 °F 65% 29.83 in - WNW 6.9 mph - N/A   Clear
10:00 AM 82.4 °F 83.4 °F 62.6 °F 51% 29.86 in - WSW 4.6 mph - N/A   Clear
11:00 AM 87.8 °F 86.5 °F 57.2 °F 35% 29.83 in - WSW 6.9 mph - N/A   Clear
12:00 PM 91.4 °F - 51.8 °F 26% 29.83 in - NW 6.9 mph - N/A   Clear
1:00 PM 93.2 °F - 48.2 °F 21% 29.80 in - Calm Calm - N/A   Clear
2:00 PM 96.8 °F - 46.4 °F 18% 29.80 in - NW 9.2 mph - N/A   Clear
3:00 PM 99 °F - 42 °F 7% 29.62 in 9 mi West 8.9 mph - -  
3:00 PM 98.6 °F - 42.8 °F 15% 29.77 in - West 9.2 mph - N/A   Clear
4:00 PM 98.6 °F - 44.6 °F 16% 29.77 in - West 9.2 mph - N/A   Clear
5:00 PM 95.0 °F 92.7 °F 53.6 °F 25% 29.77 in - WSW 13.8 mph - N/A   Clear
6:00 PM 93.2 °F 91.3 °F 55.4 °F 28% 29.77 in - West 16.1 mph - N/A   Clear
7:00 PM 89.6 °F 88.1 °F 57.2 °F 33% 29.77 in - West 13.8 mph - N/A   Clear
8:00 PM 86.0 °F - 51.8 °F 31% 29.80 in - NW 9.2 mph - N/A   Clear
9:00 PM 81 °F - 48 °F 21% 29.67 in 9 mi WSW 2.2 mph - -  
9:00 PM 80.6 °F - 48.2 °F 32% 29.80 in - WSW 2.3 mph - N/A   Clear
10:00 PM 78.8 °F - 60.8 °F 54% 29.80 in - WSW 11.5 mph - N/A   Clear
11:00 PM 77.0 °F - 62.6 °F 61% 29.80 in - WSW 13.8 mph - N/A   Clear